Location: Pordenone
(45.9640°N, 12.6580°E)
Time: 02:52:13
(UTC+02:00)

ISS - Pass Details

Date: 21 May 2021
Orbit: 417 x 422 km, 51.6° (Epoch: 14 June)

Event Time Altitude Azimuth Distance (km) Brightness Sun altitude
Rises 00:32:19 0° 297° (WNW) 2,370 0.6 -23.4°
Reaches altitude 10° 00:34:28 10° 303° (WNW) 1,505 -0.4 -23.5°
Enters shadow 00:37:19 44° 353° (N) 595 -2.6 -23.5°
